Regional Weather Roundup
Issued by NWS

Home | Current Version | Previous Version | Text Only | Print | Product List | Glossary Off
Versions: 1 2 3 4 5 6 7 8 9 10 11 12 13 14 15 16 17 18 19 20 21 22 23 24 25 26 27 28 29 30 31 32 33 34 35 36 37 38 39 40 41 42 43 44 45 46 47 48 49 50

000
ASUS43 KIND 231309
RWRIN

WEATHER ROUNDUP FOR INDIANA
NATIONAL WEATHER SERVICE INDIANAPOLIS IN
900 AM EDT MON APR 23 2018

NOTE: "FAIR" INDICATES FEW OR NO CLOUDS BELOW 12,000 FEET WITH NO
SIGNIFICANT WEATHER AND/OR OBSTRUCTIONS TO VISIBILITY.

* - STATION DOES NOT REPORT WEATHER SUCH AS PRECIPITATION OR FOG.

+ - STATION NOT QUALITY CONTROLLED BY THE NATIONAL WEATHER SERVICE.
    USE DATA WITH CAUTION...ESPECIALLY DEWPOINT AND RELATIVE
    HUMIDITY OBSERVATIONS.

INZ001>003-010>013-019-020-231400-
NORTHWEST INDIANA

CITY           SKY/WX    TMP DP  RH WIND       PRES   REMARKS
GARY /AIRPORT/ CLOUDY    46  34  61 NE9       30.20F
KNOX *+        FAIR      48  30  49 E10       30.17F
LA PORTE +     FAIR      49  27  42 NE8       30.18F
MICHIGAN CITY+ FAIR      46  28  49 E3        30.20F
MONTICELLO +   FAIR      49  28  44 E8        30.14S
RENSSELAER +   FAIR      48  21  34 NE12      30.16R
VALPARAISO     FAIR      51  28  41 NE12      30.17F

$$

LMZ046-743>745-231400-
SOUTHERN LAKE MICHIGAN

STATION/POSITION TIME  TEMP    WIND        PRES    WAVE
                       AIR SEA DIR/SP/G            HT
                 (UTC) (F)     (DEG/KT/KT) (MB)    (FT)
BURNS HARBOR     1230   43      60/ 10/ 11 1023.0S
MICHIGAN CITY    1230   42      30/ 12/ 13   N/A

$$

INZ004-005-014>016-021>024-231400-
NORTH CENTRAL INDIANA

CITY           SKY/WX    TMP DP  RH WIND       PRES   REMARKS
ELKHART        FAIR      50  27  40 E12       30.19F
GOSHEN         FAIR      48  29  47 E8        30.19F
LOGANSPORT +   FAIR      46  32  57 E9        30.15F
PERU/GRISSOM   PTSUNNY   48  32  53 E12       30.13F
ROCHESTER +    FAIR      50  32  50 NE6       30.17S
SOUTH BEND     FAIR      49  25  39 NE6       30.20F
WARSAW +       FAIR      46  32  57 E8        30.17F

$$

INZ006>009-017-018-025>027-231400-
NORTHEAST INDIANA

CITY           SKY/WX    TMP DP  RH WIND       PRES   REMARKS
AUBURN +       FAIR      46  32  57 E10       30.20F
FORT WAYNE     PTSUNNY   48  33  56 E15       30.19S
HUNTINGTON +   FAIR      47  30  53 E9        30.17S

$$

INZ028-029-035-036-043>045-051>053-231400-
WEST CENTRAL INDIANA

CITY           SKY/WX    TMP DP  RH WIND       PRES   REMARKS
CRAWFORDSVL +  DRIZZLE   46  33  60 E8        30.11S
GREENCASTLE +  LGT RAIN  46  36  66 E7        30.10S
LAFAYETTE      FAIR      48  32  53 E13       30.13S
TERRE HAUTE    LGT RAIN  50  43  77 E7        30.08S

$$

INZ030>032-037>040-046>048-054>057-064-065-231400-
CENTRAL INDIANA

CITY           SKY/WX    TMP DP  RH WIND       PRES   REMARKS
ANDERSON       SUNNY     46  32  57 E12       30.13
COLUMBUS       LGT RAIN  48 N/A N/A N5        30.11R
FISHERS *+     FAIR      48  37  66 CALM      30.13S
FRANKFORT +    FAIR      52  33  48 E10       30.14S
GREENWOOD *+   PTSUNNY   52  35  52 E7        30.11S
INDIANAPOLIS   CLOUDY    51  34  52 NE6       30.11S
-EAGLE CREEK   CLOUDY    50  33  52 NE6       30.11S
KOKOMO +       FAIR      49  33  54 E14       30.15F
MARION +       FAIR      47  32  56 E12       30.15F
MT COMFORT *+  FAIR      48  41  76 NE6       30.12S
SHELBYVILLE    LGT RAIN  54  36  50 E7        30.11R
ZIONSVILLE +   FAIR      47  32  57 E6        30.13S

$$

INZ033-034-041-042-049-050-058-059-231400-
EAST CENTRAL INDIANA

CITY           SKY/WX    TMP DP  RH WIND       PRES   REMARKS
MUNCIE         FAIR      51  34  52 E12       30.14S
RICHMOND +     FAIR      50  37  62 E10       30.14R

$$

INZ060-061-067>069-081>083-085>088-231400-
SOUTHWEST INDIANA

CITY           SKY/WX    TMP DP  RH WIND       PRES   REMARKS
EVANSVILLE     CLOUDY    55  54  96 E13       29.96S
HUNTINGBURG +  LGT RAIN  54  52  93 E16       29.99S
WASHINGTON +   LGT RAIN  50  49  94 E14       30.02S

$$

INZ062-063-066-070>080-084-089>092-231400-
SOUTH CENTRAL AND SOUTHEAST INDIANA

CITY           SKY/WX    TMP DP  RH WIND       PRES   REMARKS
BATESVILLE +   PTSUNNY   52  36  54 MISG      30.11S
BEDFORD +      LGT RAIN  48  45  87 NE13      30.05F
BLOOMINGTON    LGT RAIN  49  46  90 E6        30.07F
FRENCH LICK *+ CLOUDY    50 N/A N/A NE9G16    30.03R
MADISON *+     CLOUDY    50  45  81 E8        30.11R
NORTH VERNON + RAIN      48  45  87 E5        30.11R
SEYMOUR +      RAIN      50  45  81 E8        30.09R

$$





USA.gov is the U.S. government's official web portal to all federal, state and local government web resources and services.